FENGYUN 2D

Satellite information

Favourite Embed

Satellite Type and Status

PAYLOADIN ORBIT

Key statistics

Satellite FENGYUN 2D at a glance.

Uptime

6906

Days in orbit

Revolutions

≈ 1.0

Per day

Orbit

OTHER

Other

Inclination

10.5

Latest

Satellite identification and parameters

Extended collection of information and parameters for FENGYUN 2D.

Object identification

Identified? True

Debris? False

Object name: FENGYUN 2D

International designator: 2006-053A

Object number (NORAD): 29640

Object ID (CCSDS): 29640

Country: PEOPLES REPUBLIC OF CHINA (PRC)

Current information (Y/N): Y

RCS size: LARGE

Orbital parameters

Period: 1466.484 minutes

Inclination: 10.5433 deg

SMA: 42757.444 km

Apoapsis: 36412.549 km

Periapsis: 36346.068 km

RAAN: 42.7583 deg

Eccentricy: 0.00077742

Argument of periapsis: 36.9299 deg

Mean anomaly: 335.4187 deg

Mean motion: 0.98194048 rev/day

Mean motion (dot): -0.00000175 rev/day2

B* drag term: 0.0 1/REarth

Two-line elements (TLE)

Creation date: Nov. 2, 2025, 5:34 p.m.

Reference frame: TEME

Reference center: EARTH

Epoch: Nov. 2, 2025, 2:31 a.m. UTC

TLE line 0: 0 FENGYUN 2D

TLE line 1: 1 29640U 06053A 25306.10509302 -.00000175 00000-0 00000-0 0 9995

TLE line 2: 2 29640 10.5433 42.7583 0007774 36.9299 335.4187 0.98194048 68773

Live tracking on map

Real-time ground track for satellite FENGYUN 2D.

In-orbit conjunctions

There are no conjunctions computed for FENGYUN 2D, at the moment. Check back to stay up to date, as we update our databases every day.

Go to all conjunctions

Associated space launch

Chinese geostationary meteorological satellite

FENGYUN 2D was lifted into orbit during the mission ‘Long March 3A | Feng Yun 2D’, on board a Long March 3A space rocket.

The launch took place on Dec. 8, 2006, 12:53 a.m. from Launch Complex 2 (LC-2).

For more information about the launch, click the button.

Launch to space Long March 3A | Feng Yun 2D
Long March 3A | Feng Yun 2D

Agency: N/A

Status: Launch Successful

Launch date: Dec. 8, 2006, 12:53 a.m. UTC

Rocket: Long March 3A

Launch pad: Launch Complex 2 (LC-2)

Location: Xichang Satellite Launch Center, People's Republic of China

...

Latest news about this satellite

There are no fresh news available about this satellite. Check back as we update our databases every day.


Newsletter sign-up

Weekly statistics, charts and insights to help you stay on top of the space industry.